When you browse on this site, cookies collect data to enhance your experience and personalize the content and advertising you see.
Visit our Privacy Policy to learn more. By continuing to use the site, you agree to this use of cookies and data.
  • In Czech Republic
  • List of Countries
  • For 7 days
  • Water Temperature
  • Weather Map
  • Weather Widgets
  • user-avatar
    Login

    Hourly Weather Rawson

    Today, 19 September, Thursday

    Time Temperature Precipitation Wind Pressure Humidity
    00:00 +6°C° 0 mm 11 mps 745 mmHg 38%
    01:00 +5°C° 0 mm 12 mps 745 mmHg 39%
    02:00 +4°C° 0 mm 12 mps 746 mmHg 40%
    03:00 +4°C° 0 mm 11 mps 746 mmHg 41%
    04:00 +4°C° 0 mm 11 mps 747 mmHg 42%
    05:00 +3°C° 0 mm 11 mps 748 mmHg 44%
    06:00 +4°C° 0 mm 11 mps 749 mmHg 43%
    07:00 +4°C° 0 mm 12 mps 750 mmHg 41%
    08:00 +5°C° 0 mm 13 mps 751 mmHg 40%
    09:00 +7°C° 0 mm 12 mps 751 mmHg 36%
    10:00 +8°C° 0 mm 12 mps 752 mmHg 31%
    11:00 +11°C° 0 mm 11 mps 752 mmHg 27%
    12:00 +10°C° 0 mm 12 mps 752 mmHg 26%
    13:00 +12°C° 0 mm 12 mps 752 mmHg 25%
    14:00 +13°C° 0 mm 12 mps 752 mmHg 24%
    15:00 +13°C° 0 mm 12 mps 752 mmHg 23%
    16:00 +13°C° 0 mm 11 mps 752 mmHg 22%
    17:00 +13°C° 0 mm 11 mps 752 mmHg 21%
    18:00 +12°C° 0 mm 10 mps 752 mmHg 24%
    19:00 +11°C° 0 mm 9 mps 753 mmHg 26%
    20:00 +10°C° 0 mm 8 mps 753 mmHg 29%
    21:00 +10°C° 0 mm 8 mps 754 mmHg 32%
    22:00 +9°C° 0 mm 8 mps 754 mmHg 34%
    23:00 +7°C° 0 mm 8 mps 755 mmHg 37%

    Tomorrow, 20 September, Friday

    Time Temperature Precipitation Wind Pressure Humidity
    00:00 +7°C° 0 mm 8 mps 755 mmHg 39%
    01:00 +6°C° 0 mm 8 mps 755 mmHg 41%
    02:00 +6°C° 0 mm 9 mps 755 mmHg 43%
    03:00 +6°C° 0 mm 9 mps 755 mmHg 44%
    04:00 +5°C° 0 mm 9 mps 755 mmHg 44%
    05:00 +5°C° 0 mm 9 mps 755 mmHg 45%
    06:00 +6°C° 0 mm 10 mps 755 mmHg 43%
    07:00 +7°C° 0 mm 11 mps 755 mmHg 42%
    08:00 +7°C° 0 mm 12 mps 756 mmHg 40%
    09:00 +9°C° 0 mm 12 mps 756 mmHg 36%
    10:00 +10°C° 0 mm 12 mps 756 mmHg 33%
    11:00 +12°C° 0 mm 12 mps 756 mmHg 29%
    12:00 +13°C° 0 mm 12 mps 755 mmHg 27%
    13:00 +14°C° 0 mm 12 mps 755 mmHg 25%
    14:00 +14°C° 0 mm 13 mps 755 mmHg 23%
    15:00 +14°C° 0 mm 12 mps 754 mmHg 24%
    16:00 +14°C° 0 mm 12 mps 754 mmHg 24%
    17:00 +14°C° 0 mm 12 mps 754 mmHg 25%
    18:00 +13°C° 0 mm 11 mps 754 mmHg 27%
    19:00 +13°C° 0 mm 11 mps 754 mmHg 29%
    20:00 +12°C° 0 mm 11 mps 754 mmHg 30%
    21:00 +11°C° 0 mm 11 mps 755 mmHg 32%
    22:00 +10°C° 0 mm 12 mps 755 mmHg 33%
    23:00 +9°C° 0 mm 13 mps 755 mmHg 35%

    Day after tomorrow, 21 September, Saturday

    Time Temperature Precipitation Wind Pressure Humidity
    00:00 +9°C° 0 mm 11 mps 755 mmHg 38%
    01:00 +8°C° 0 mm 10 mps 755 mmHg 41%
    02:00 +8°C° 0 mm 9 mps 755 mmHg 43%
    03:00 +7°C° 0 mm 9 mps 756 mmHg 46%
    04:00 +7°C° 0 mm 8 mps 756 mmHg 48%
    05:00 +6°C° 0 mm 8 mps 756 mmHg 51%
    06:00 +6°C° 0 mm 8 mps 757 mmHg 47%
    07:00 +7°C° 0 mm 9 mps 758 mmHg 44%
    08:00 +7°C° 0 mm 10 mps 758 mmHg 41%
    09:00 +8°C° 0 mm 9 mps 759 mmHg 36%
    10:00 +10°C° 0 mm 9 mps 760 mmHg 31%
    11:00 +11°C° 0 mm 8 mps 761 mmHg 26%
    12:00 +12°C° 0 mm 8 mps 761 mmHg 25%
    13:00 +12°C° 0 mm 7 mps 761 mmHg 23%
    14:00 +14°C° 0 mm 7 mps 761 mmHg 22%
    15:00 +14°C° 0 mm 6 mps 761 mmHg 25%
    16:00 +13°C° 0 mm 4 mps 761 mmHg 27%
    17:00 +12°C° 0 mm 3 mps 762 mmHg 30%
    18:00 +11°C° 0 mm 3 mps 762 mmHg 34%
    19:00 +10°C° 0 mm 3 mps 762 mmHg 38%
    20:00 +8°C° 0 mm 4 mps 763 mmHg 41%
    21:00 +9°C° 0 mm 3 mps 763 mmHg 43%
    22:00 +8°C° 0 mm 3 mps 764 mmHg 45%
    23:00 +8°C° 0 mm 2 mps 764 mmHg 47%

    22 September, Sunday

    Time Temperature Precipitation Wind Pressure Humidity
    00:00 +8°C° 0 mm 2 mps 764 mmHg 46%
    01:00 +8°C° 0 mm 2 mps 764 mmHg 46%
    02:00 +8°C° 0 mm 2 mps 765 mmHg 45%
    03:00 +7°C° 0 mm 2 mps 765 mmHg 46%
    04:00 +7°C° 0 mm 2 mps 765 mmHg 47%
    05:00 +7°C° 0 mm 3 mps 765 mmHg 47%
    06:00 +8°C° 0 mm 3 mps 765 mmHg 46%
    07:00 +9°C° 0 mm 3 mps 765 mmHg 45%
    08:00 +9°C° 0 mm 3 mps 765 mmHg 43%
    09:00 +11°C° 0 mm 3 mps 765 mmHg 38%
    10:00 +13°C° 0 mm 3 mps 765 mmHg 33%
    11:00 +15°C° 0 mm 4 mps 764 mmHg 28%
    12:00 +17°C° 0 mm 4 mps 764 mmHg 26%
    13:00 +17°C° 0 mm 5 mps 763 mmHg 23%
    14:00 +19°C° 0 mm 6 mps 762 mmHg 21%
    15:00 +18°C° 0 mm 7 mps 761 mmHg 23%
    16:00 +17°C° 0 mm 8 mps 761 mmHg 25%
    17:00 +17°C° 0 mm 9 mps 760 mmHg 28%
    18:00 +16°C° 0 mm 9 mps 760 mmHg 29%
    19:00 +16°C° 0 mm 9 mps 760 mmHg 31%
    20:00 +15°C° 0 mm 8 mps 759 mmHg 33%
    21:00 +15°C° 0 mm 7 mps 759 mmHg 33%
    22:00 +14°C° 0 mm 6 mps 759 mmHg 33%
    23:00 +14°C° 0 mm 5 mps 759 mmHg 33%

    23 September, Monday

    Time Temperature Precipitation Wind Pressure Humidity
    00:00 +13°C° 0 mm 5 mps 759 mmHg 35%
    01:00 +13°C° 0 mm 5 mps 760 mmHg 37%
    02:00 +12°C° 0 mm 5 mps 760 mmHg 39%
    03:00 +10°C° 0 mm 5 mps 760 mmHg 41%
    04:00 +9°C° 0 mm 5 mps 761 mmHg 43%
    05:00 +9°C° 0 mm 5 mps 761 mmHg 45%
    06:00 +9°C° 0 mm 6 mps 761 mmHg 43%
    07:00 +10°C° 0 mm 6 mps 761 mmHg 42%
    08:00 +11°C° 0 mm 7 mps 762 mmHg 40%
    09:00 +14°C° 0 mm 7 mps 762 mmHg 38%
    10:00 +15°C° 0 mm 7 mps 762 mmHg 36%
    11:00 +16°C° 0 mm 6 mps 763 mmHg 33%
    12:00 +17°C° 0 mm 6 mps 763 mmHg 32%
    13:00 +19°C° 0 mm 5 mps 763 mmHg 31%
    14:00 +19°C° 0 mm 4 mps 763 mmHg 30%
    15:00 +19°C° 0 mm 4 mps 763 mmHg 32%
    16:00 +18°C° 0 mm 4 mps 763 mmHg 34%
    17:00 +18°C° 0 mm 4 mps 763 mmHg 35%
    18:00 +16°C° 0 mm 3 mps 763 mmHg 40%
    19:00 +14°C° 0 mm 3 mps 764 mmHg 45%
    20:00 +12°C° 0 mm 3 mps 764 mmHg 50%
    21:00 +12°C° 0 mm 3 mps 764 mmHg 51%
    22:00 +12°C° 0 mm 3 mps 764 mmHg 51%
    23:00 +12°C° 0 mm 3 mps 764 mmHg 51%

    24 September, Tuesday

    Time Temperature Precipitation Wind Pressure Humidity
    00:00 +12°C° 0 mm 3 mps 764 mmHg 50%
    01:00 +13°C° 0 mm 4 mps 764 mmHg 48%
    02:00 +13°C° 0 mm 4 mps 764 mmHg 47%
    03:00 +13°C° 0 mm 4 mps 764 mmHg 52%
    04:00 +12°C° 0 mm 5 mps 764 mmHg 57%
    05:00 +12°C° 0 mm 5 mps 763 mmHg 62%
    06:00 +13°C° 0 mm 5 mps 763 mmHg 59%
    07:00 +14°C° 0 mm 5 mps 763 mmHg 56%
    08:00 +15°C° 0 mm 5 mps 763 mmHg 52%
    09:00 +18°C° 0 mm 4 mps 763 mmHg 47%
    10:00 +20°C° 0 mm 4 mps 763 mmHg 42%
    11:00 +22°C° 0 mm 3 mps 763 mmHg 37%
    12:00 +24°C° 0 mm 3 mps 763 mmHg 35%
    13:00 +25°C° 0 mm 3 mps 762 mmHg 33%
    14:00 +26°C° 0 mm 3 mps 762 mmHg 30%
    15:00 +26°C° 0 mm 4 mps 761 mmHg 30%
    16:00 +26°C° 0 mm 4 mps 760 mmHg 30%
    17:00 +26°C° 0 mm 4 mps 760 mmHg 29%
    18:00 +23°C° 0 mm 6 mps 760 mmHg 32%
    19:00 +22°C° 0 mm 7 mps 759 mmHg 35%
    20:00 +20°C° 0 mm 8 mps 759 mmHg 39%
    21:00 +20°C° 0 mm 8 mps 759 mmHg 38%
    22:00 +19°C° 0 mm 9 mps 758 mmHg 38%
    23:00 +19°C° 0 mm 10 mps 758 mmHg 37%
    Show more